Weather Roundup
Issued by NWS

Home | Current Version | Previous Version | Text Only | Print | Product List | Glossary On
Versions: 1 2 3 4 5 6 7 8 9 10 11 12 13 14 15 16 17 18 19 20 21 22 23 24 25 26 27 28 29 30 31 32 33 34 35 36 37 38 39 40 41 42 43 44 45 46 47 48 49 50
000
NZUS93 KARX 061410
HRRWXR

CURRENT HOURLY OBSERVATIONS ACROSS
MUCH OF THE UPPER MISSISSIPPI VALLEY
NATIONAL WEATHER SERVICE LA CROSSE WI
900 AM CDT MON JUL 06 2015


...SOUTHEAST MINNESOTA...


CITY           SKY/WX    TMP DP  RH WIND       PRES   REMARKS
ROCHESTER      LGT RAIN  71  69  93 S7        29.83F
ROCHESTER/MAYO PTSUNNY   70  70 100 SE6       29.81F
WINONA         CLOUDY    73  72  94 SE3       29.82S
AUSTIN         DRIZZLE   72  70  94 S8        29.85S
ALBERT LEA     CLOUDY    72  70  94 S9        29.82R
DODGE CENTER   LGT RAIN  72  70  94 S9        29.81F
PRESTON        LGT RAIN  70  68  94 S9        29.87R
OWATONNA       CLOUDY    73  70  88 S6        29.79F
FARIBAULT      CLOUDY    72  72 100 S6        29.78F
$$

...ELSEWHERE IN MINNESOTA...


CITY           SKY/WX    TMP DP  RH WIND       PRES   REMARKS
MINNEAPOLIS    CLOUDY    71  69  93 SE6       29.77F
INTNL FALLS    CLOUDY    58  51  78 N12       29.96S
DULUTH         HVY RAIN  61  58  90 NE8       29.88S VSB 3/4
RED WING       CLOUDY    73  72  94 SE6       29.77F
REDWOOD FALLS  LGT RAIN  69  67  93 N9        29.85R
MANKATO        CLOUDY    70  66  88 SW6       29.80R
WORTHINGTON    CLOUDY    68  64  88 NW12      29.88R
FAIRMONT       CLOUDY    72  64  78 W6        29.80R
$$

...SOUTHWEST WISCONSIN...


CITY           SKY/WX    TMP DP  RH WIND       PRES   REMARKS
LA CROSSE      CLOUDY    74  70  87 S8        29.84F FOG
PRAIRIE DU CHI CLOUDY    74  67  78 S6        29.89R
BOSCOBEL       LGT RAIN  72  69  90 CALM      29.90R VSB 1
LONE ROCK      LGT RAIN  73  68  84 SW9       29.90R
PLATTEVILLE    CLOUDY    73  70  91 S9        29.92R
FORT MC COY    LGT RAIN  69  68  95 S5        29.88R
CAMP DOUGLAS   LGT RAIN  70  70 100 S6        29.87R
VIROQUA        CLOUDY    71  71 100 SW10      29.90R
WIS DELLS      CLOUDY    73  65  77 S14       29.88S
$$

...ELSEWHERE IN WISCONSIN...


CITY           SKY/WX    TMP DP  RH WIND       PRES   REMARKS
MILWAUKEE      PTSUNNY   74  65  73 S9        29.94F
MADISON        CLOUDY    74  66  76 S10       29.90R
GREEN BAY      CLOUDY    73  66  78 S10       29.89F HAZE
EAU CLAIRE     CLOUDY    70  67  90 SE5       29.80F FOG
BLACK RVR FLS  LGT RAIN  71  71 100 CALM      29.85R
MEDFORD        DRIZZLE   67  66  98 SE3       29.87S
WAUSAU         CLOUDY    69  66  90 SW6       29.86S FOG
WIS RAPIDS     LGT RAIN  69  66  90 SW6       29.88S FOG
MARSHFIELD     CLOUDY    69  65  86 S8        29.86S FOG
RICE LAKE      RAIN      67  66  95 SE6       29.83R
$$

...NORTHEAST IOWA...


CITY           SKY/WX    TMP DP  RH WIND       PRES   REMARKS
DECORAH          N/A    N/A N/A N/A MISG        N/A
MASON CITY     LGT RAIN  71  69  93 S8        29.92R
CHARLES CITY   LGT RAIN  70  70 100 S12G18    29.90F
OELWEIN          N/A     70  68  94 W9        29.94R
$$

...ELSEWHERE IN IOWA...


CITY           SKY/WX    TMP DP  RH WIND       PRES   REMARKS
DES MOINES     CLOUDY    74  70  87 S6        29.88R
IOWA CITY      TSTM      73  70  90 W7        29.94R FOG
FORT DODGE     CLOUDY    70  66  88 E7        29.89F
$$

...NORTHERN ILLINOIS...


CITY           SKY/WX    TMP DP  RH WIND       PRES   REMARKS
CHICAGO-OHARE  MOSUNNY   76  67  73 S10       29.98S HAZE
CHICAGO-MIDWAY MOSUNNY   77  67  71 S10       29.98F
MOLINE         CLOUDY    76  70  82 SW7       29.92R
ROCKFORD       CLOUDY    75  68  78 S13       29.96R
PEORIA         PTSUNNY   76  69  79 S12       29.98R HAZE
$$

NOTE: "FAIR" INDICATES FEW OR NO CLOUDS BELOW 12,000 FEET WITH NO
SIGNIFICANT WEATHER AND/OR OBSTRUCTIONS TO VISIBILITY. WIND
SPEEDS ARE IN MILES-PER-HOUR.



USA.gov is the U.S. government's official web portal to all federal, state and local government web resources and services.